Location: Arbon
(43.0005°N, 0.7472°E)
Time: 22:59:19
(UTC+00:00)

Courier 1B Rocket - Pass Details

Date: 28 November 2020
Orbit: 920 x 1202 km, 28.2° (Epoch: 24 January)

Event Time Altitude Azimuth Distance (km) Brightness Sun altitude
Exits shadow 04:51:24 - 211° (SSW) 4,032 8.0 -24.0°
Reaches altitude 10° 04:55:30 10° 191° (S) 3,124 7.6 -23.2°
Maximum altitude 04:59:37 15° 159° (SSE) 2,732 7.7 -22.5°
Drops below altitude 10° 05:03:43 10° 126° (SE) 3,093 8.5 -21.8°
Sets 05:07:54 0° 105° (ESE) 4,019 9.8 -21.0°
